Weather in Baygul

Russia / Zabaykalsky Krai     52°14′52″N   116°44′44″E
temp.,
°C
wind,
m/s
gust,
m/s
humid.,
%
clouds,
%
prec.,
mm/h
press.,
hPa
HPBL,
m
6 march, sat
sat600:00−28ssw22800 0.0 104219
03:00−29s11830 0.0 104019
06:00−29se118633 0.0 103919
09:00−27ene118659 0.0 103619
12:00−23ne118368 0.0 1032193
15:00−20wnw128484 0.0 1028288
18:00−18sw2595100 0.3 1026306
21:00−22sw229977 0.3 102720
7 march, sun
sun700:00−23sw229828 0.0 102720
03:00−23wsw1210055 0.0 102720
06:00−24wsw1110062 0.0 102820
09:00−23wsw119943 0.0 102920
12:00−16sse01880 0.0 1026145
15:00−13ese11840 0.0 1024167
18:00−14se11900 0.0 102220
21:00−16sse11972 0.0 102420
8 march, mon
mon800:00−15s22940 0.0 102320
03:00−16ssw22894 0.0 102220
06:00−16ssw229133 0.0 102020
09:00−12ssw379267 0.0 1019257
12:00−8wsw5890100 0.0 1016366
15:00−6sw4792100 0.0 1014299
18:00−2sw2594100 0.4 1012216
21:00−7wnw468696 1.1 101598
9 march, tue
tue900:00−10wnw6117673 0.1 1019219
03:00−14nw597737 0.1 1024139
06:00−17wnw44750 0.0 102860
09:00−18w23740 0.0 103126
12:00−13wsw34740 0.0 1030201
15:00−10ssw237427 0.0 1028226
18:00−10s1282100 0.0 102621
21:00−12s1280100 0.0 102621
10 march, wed
wed1000:00−13s1276100 0.0 102420
03:00−13ssw2276100 0.0 102223
06:00−14sw3485100 0.0 102258
09:00−14wsw359097 0.0 1022112
12:00−9wsw368998 0.0 1020291
15:00−4w267966 0.0 1020327
18:00−5nw45740 0.0 102282
21:00−9wnw34730 0.0 102725